Вернуться в каталог

COSMOS 1252

АктивенВоенныеLEO
NORAD 12322·PAYLOAD·🇷🇺 Russia

Запущен Mar 6, 1981 с Plesetsk Cosmodrome

Loading…

Ближайшие Пролёты (ближайшие 24 часа)

TLE

СвежийSource: Space-Track

Эпоха: Sep 14, 2026, 07:26 UTC

1 12322U 81022C   26257.31020304 -.00000010  00000-0  34713-4 0  9992
2 12322  74.0332  14.8802 0034146  92.7256 295.7265 12.54812402 85337

Отслеживайте COSMOS 1252 в реальном времени с AllMySat

Download on the App Store